Weather History for Lafayette, LA

Change the Weather History Date:

Tuesday, July 16, 2013

  Actual Average Record
Temperature  
Mean Temperature 80 °F 84 °F  
Max Temperature 86 °F 92 °F 99 °F (1980)
Min Temperature 74 °F 75 °F 61 °F (1967)
Cooling Degree Days 15 18  
Month to date cooling degree days 261 288  
Year to date cooling degree days 1266 1400  
Since 1 June cooling degree days 802 786  
Growing Degree Days 28 (Base 50)    
Moisture  
Dew Point 73 °F    
Average Humidity 82    
Maximum Humidity 94    
Minimum Humidity 70    
Precipitation  
Precipitation 0.13 in 0.20 in 1.72 in (1986)
Month to date precipitation 2.42 3.61  
Year to date precipitation 37.70 33.31  
Sea Level Pressure  
Sea Level Pressure 30.10 in    
Wind  
Wind Speed 4 mph (ENE)    
Max Wind Speed 13 mph    
Max Gust Speed 17 mph    
Visibility 10 miles    
Events Rain , Thunderstorm    
T = Trace of Precipitation, MM = Missing Value Source: NWS Daily Summary

Daily Weather History Graph

Daily Weather History Graph

Search for Another Location

Airport:

Trip Planner

Search our weather history database for the weather conditions in past years. The results will help you decide how hot, cold, wet, or windy it might be!

Date:

Astronomy

Jul. 16, 2013 Rise Set
Actual Time 6:17 AM CDT 8:10 PM CDT
Civil Twilight 5:50 AM CDT 8:37 PM CDT
Nautical Twilight 5:17 AM CDT 9:09 PM CDT
Astronomical Twilight 4:43 AM CDT 9:44 PM CDT
Moon 2:02 PM CDT (7/16) 12:34 AM CDT (7/16)
Length of Visible Light 14h 46m
Length of Day
13h 53m
First Quarter, 56% of the Moon is Illuminated
Jul 16
First Quarter
Jul 22
Full
Jul 29
Last Quarter
Aug 6
New
Aug 14
First Quarter

Hourly Weather History & Observations

Time (CDT) Temp. Heat Index Dew Point Humidity Pressure Visibility Wind Dir Wind Speed Gust Speed Precip Events Conditions
12:53 AM 73.9 °F - 72.0 °F 93% 30.09 in 10.0 mi NE 3.5 mph - N/A   Clear
1:53 AM 73.9 °F - 71.1 °F 91% 30.08 in 10.0 mi ENE 3.5 mph - N/A   Clear
2:53 AM 73.9 °F - 72.0 °F 93% 30.07 in 10.0 mi NE 3.5 mph - N/A   Clear
3:53 AM 73.9 °F - 72.0 °F 93% 30.07 in 10.0 mi NE 3.5 mph - N/A   Clear
4:35 AM 73.4 °F - 71.6 °F 94% 30.07 in 9.0 mi ENE 4.6 mph - N/A Thunderstorm Clear
4:50 AM 73.4 °F - 71.6 °F 94% 30.08 in 10.0 mi ENE 5.8 mph - N/A   Clear
4:53 AM 73.9 °F - 72.0 °F 93% 30.08 in 10.0 mi NE 4.6 mph - N/A   Clear
5:53 AM 73.9 °F - 72.0 °F 93% 30.09 in 10.0 mi ENE 5.8 mph - N/A Thunderstorm Scattered Clouds
6:53 AM 73.9 °F - 72.0 °F 93% 30.09 in 6.0 mi NE 4.6 mph - 0.08 in Thunderstorm Mostly Cloudy
7:02 AM 73.4 °F - 71.6 °F 94% 30.10 in 7.0 mi NE 3.5 mph - N/A   Scattered Clouds
7:53 AM 75.0 °F - 73.0 °F 94% 30.11 in 7.0 mi NE 4.6 mph - N/A   Scattered Clouds
8:34 AM 77.0 °F - 73.4 °F 89% 30.11 in 10.0 mi NE 8.1 mph - N/A   Scattered Clouds
8:53 AM 78.1 °F - 73.9 °F 87% 30.12 in 10.0 mi ENE 6.9 mph - N/A   Scattered Clouds
9:53 AM 81.0 °F 86.2 °F 73.9 °F 79% 30.12 in 10.0 mi ENE 4.6 mph - N/A   Scattered Clouds
10:31 AM 82.4 °F 88.2 °F 73.4 °F 74% 30.12 in 10.0 mi East 6.9 mph - N/A   Mostly Cloudy
10:53 AM 84.0 °F 91.2 °F 73.9 °F 72% 30.12 in 10.0 mi Variable 3.5 mph - N/A   Mostly Cloudy
11:00 AM 84.2 °F 90.9 °F 73.4 °F 70% 30.12 in 10.0 mi Variable 4.6 mph - N/A   Mostly Cloudy
11:53 AM 84.0 °F 90.2 °F 73.0 °F 69% 30.11 in 10.0 mi ENE 9.2 mph - N/A   Scattered Clouds
12:53 PM 84.9 °F 91.4 °F 73.0 °F 67% 30.11 in 10.0 mi Variable 4.6 mph - N/A   Mostly Cloudy
1:53 PM 78.1 °F - 73.9 °F 87% 30.10 in 6.0 mi South 11.5 mph - 0.01 in Rain , Thunderstorm Light Thunderstorms and Rain
2:21 PM 78.8 °F - 73.4 °F 83% 30.10 in 10.0 mi Calm Calm - 0.00 in   Mostly Cloudy
2:53 PM 79.0 °F - 73.9 °F 84% 30.10 in 10.0 mi Calm Calm - 0.00 in   Clear
3:53 PM 80.1 °F 85.4 °F 75.9 °F 87% 30.09 in 10.0 mi East 3.5 mph - N/A   Clear
4:53 PM 81.0 °F 86.7 °F 75.0 °F 82% 30.09 in 10.0 mi East 4.6 mph - 0.01 in   Partly Cloudy
5:53 PM 82.0 °F 89.4 °F 75.9 °F 82% 30.09 in 10.0 mi ENE 4.6 mph - N/A   Partly Cloudy
6:53 PM 82.0 °F 88.6 °F 75.0 °F 79% 30.10 in 10.0 mi Calm Calm - N/A   Scattered Clouds
7:53 PM 79.0 °F - 75.9 °F 90% 30.11 in 10.0 mi East 3.5 mph - 0.03 in   Scattered Clouds
8:53 PM 78.1 °F - 75.0 °F 90% 30.14 in 10.0 mi Calm Calm - N/A   Overcast
9:53 PM 77.0 °F - 75.0 °F 94% 30.14 in 10.0 mi Calm Calm - N/A   Clear
10:53 PM 77.0 °F - 73.9 °F 90% 30.16 in 10.0 mi East 3.5 mph - N/A   Clear
11:53 PM 75.9 °F - 73.9 °F 94% 30.16 in 10.0 mi Calm Calm - N/A   Clear